Regional Weather Roundup
Issued by NWS

Home | Current Version | Previous Version | Graphics & Text | Print | Product List | Glossary Off
Versions: 1 2 3 4 5 6 7 8 9 10 11 12 13 14 15 16 17 18 19 20 21 22 23 24 25 26 27 28 29 30 31 32 33 34 35 36 37 38 39 40 41 42 43 44 45 46 47 48 49 50

000
ASUS43 KDTX 201401
RWRMI
MICHIGAN HOURLY REGIONAL WEATHER ROUNDUP
NATIONAL WEATHER SERVICE DETROIT/PONTIAC MI
900 AM EST MON NOV 20 2017

NOTE: "FAIR" INDICATES FEW OR NO CLOUDS BELOW 12,000 FEET WITH NO
SIGNIFICANT WEATHER AND/OR OBSTRUCTION TO VISIBILITY.

MIZ047>049-052>055-059>063-066>070-074>076-081>083-201500-
SOUTHEAST LOWER MICHIGAN

CITY           SKY/WX    TMP DP  RH WIND       PRES   REMARKS
ADRIAN         SUNNY     29  23  78 SW10      30.06F WCI  20
ALMA           CLOUDY    32  29  88 S12       29.93F WCI  23
ANN ARBOR      SUNNY     30  23  75 S10       30.03F WCI  21
BAD AXE        SUNNY     32  28  83 SW9       29.93F WCI  25
CARO           CLOUDY    34  28  81 S8        29.95R WCI  27
DETROIT CITY   MOSUNNY  N/A N/A N/A SW15G21   30.04S
DETROIT        CLOUDY    32  23  69 SW17      30.05S WCI  21
FLINT          CLOUDY    32  24  72 SW10      29.98S WCI  24
GROSSE ILE     CLOUDY    32  23  69 SW14      30.04F WCI  22
HILLSDALE      SUNNY     32  23  69 S9G17     30.01F WCI  24
HOWELL         SUNNY     32  24  73 SW10      29.99S WCI  24

CITY           SKY/WX    TMP DP  RH WIND       PRES   REMARKS
JACKSON        SUNNY     33  22  63 S14       30.00F WCI  23
LAMBERTVILLE   SUNNY     34  23  65 SW7       30.08S WCI  28
LANSING        SUNNY     32  24  72 SW14      29.97F WCI  22
LAPEER         FAIR      32  27  80 SW7       29.98S WCI  26
MASON          SUNNY     33  24  68 S6        29.99F WCI  28
MONROE         SUNNY     34  23  65 SW14      30.06F WCI  24
PONTIAC        CLOUDY    31  23  72 SW10      29.99S WCI  22
PORT HOPE        N/A     33  26  75 VRB6      29.91F WCI  28
PORT HURON     CLOUDY    32  25  74 SW5       30.00S WCI  27
TRI CITIES     SUNNY     34  30  85 S10       29.93F WCI  26
MIDLAND        FAIR      33  29  84 SW8       29.91F WCI  27
TROY           CLOUDY    32  25  73 SW10G17   30.04S WCI  24
SAGINAW HB     CLOUDY    32  28  86 SW16      29.94S WCI  21
$$
MIZ043>046-050>051-056>058-064>065-071>073-077>080-201500-
SOUTHWEST LOWER MICHIGAN

CITY           SKY/WX    TMP DP  RH WIND       PRES   REMARKS
BATTLE CREEK   SUNNY     32  23  69 S16       29.98F WCI  21
BENTON HARBOR  SUNNY     34  23  64 S12       29.97F WCI  25
BIG RAPIDS     CLOUDY    31  28  92 S6        29.87F WCI  25
COLDWATER      SUNNY     33  23  67 SW12G17   30.01F WCI  24
FREMONT        PTSUNNY   33  32  97 S8        29.89S WCI  26
HOLLAND        SUNNY     33  26  75 S14       29.93F WCI  23
GRAND RAPIDS   MOSUNNY   32  26  78 S12       29.93F WCI  23
IONIA          FAIR      32  24  72 S16       29.94S WCI  21
KALAMAZOO      SUNNY     32  22  66 S16       29.98F WCI  21
LUDINGTON      CLOUDY    37  32  83 S3        29.85S
MARSHALL       SUNNY     31  22  69 S8        29.99F WCI  24
MOUNT PLEASANT CLOUDY    33  29  84 S6        29.90F WCI  27
MUSKEGON       PTSUNNY   43  33  68 SW16      29.89F
SOUTH HAVEN    SUNNY     33  24  68 S9        29.96S WCI  26
$$
MIZ016>042-201500-
NORTHERN LOWER MICHIGAN

CITY           SKY/WX    TMP DP  RH WIND       PRES   REMARKS
ALPENA         CLOUDY    29  24  82 SE5       29.88F WCI  24
BEAVER ISLAND  CLOUDY    26  23  89 E3        29.81F
BELLAIRE       CLOUDY    33  30  88 S6        29.84F WCI  27
CADILLAC       CLOUDY    29  28  96 S10       29.82F WCI  20
CHARLEVOIX     MOCLDY    33  29  83 S5        29.85F WCI  29
FRANKFORT      PTCLDY    35  31  83 SE5       29.82F WCI  31
GAYLORD        CLOUDY    28  24  85 S7        29.81F WCI  21
GRAYLING       MOSUNNY   28  24  84 CALM      29.85S
HARBOR SPRINGS CLOUDY    32  26  79 E5        29.83S WCI  27
MANISTEE       MOCLDY    30  29  96 CALM      29.85F
OSCODA         MOSUNNY   27  22  80 SW3       29.90F
PELLSTON       CLOUDY    23  21  92 CALM      29.84F
ROGERS CITY    CLOUDY    30  25  80 S6        29.87F WCI  24
TRAVERSE CITY  CLOUDY    33  28  81 VRB3      29.82F
$$
MIZ007>008-015-201500-
EASTERN UPPER MICHIGAN

CITY           SKY/WX    TMP DP  RH WIND       PRES   REMARKS
KINROSS        CLEAR     29  23  78 SW3       29.83R
MACKINAC ISLAN CLEAR     30  25  80 CALM      29.82F
NEWBERRY       CLOUDY    18  16  92 CALM      29.80S
S. S. MARIE    CLOUDY    27  21  78 E5        29.82R WCI  22
MUNISING         N/A     23  16  74 S6        29.78F WCI  16
$$
MIZ004>006-011>014-085-201500-
CENTRAL UPPER MICHIGAN

CITY           SKY/WX    TMP DP  RH WIND       PRES   REMARKS
MANISTIQUE     CLOUDY    21  16  81 CALM      29.79F
ESCANABA       PTCLDY    23  22  96 CALM      29.79F
MENOMINEE      PTCLDY    29  24  82 SW5       29.80F WCI  24
SAWYER-GWINN   MOCLDY    19  16  86 CALM      29.74F
$$
MIZ001>003-009>011-084-201500-
WESTERN UPPER MICHIGAN

CITY           SKY/WX    TMP DP  RH WIND       PRES   REMARKS
IRON MOUNTAIN  CLOUDY    21  15  78 SE5       29.73F WCI  15
HOUGHTON       CLOUDY    22  18  85 SE3       29.69F
COPPER HARBOR    N/A     29  23  78 S6        29.72F WCI  23
IRONWOOD       CLOUDY   N/A N/A N/A CALM      29.66F
$$

ABBREVIATIONS USED IN REMARKS
   TC - TEMPERATURE IN CELSIUS
  WCI - WIND CHILL INDEX
   HX - HEAT INDEX
  VSB - VISIBILITY




USA.gov is the U.S. government's official web portal to all federal, state and local government web resources and services.